Wind_Speed
17 17 17 17 17 17 18 18 18 18 19 19 19 20 20 20 20 20 19 19 18 17 18 19 19 20 20 20 20 19 18 17 17 17 16 14 16 16 17 17 17 16 14 12 13 16 18 19 19 20 19 17 15 14 13 12 12 11 10 9 7 6 6 6 8 9 11 14 16 19 21 21 20 19 17 16 15 14 14 15 14 13 13 14 11 7 3 6
19 19 18 18 18 18 18 18 18 19 19 20 20 20 20 20 21 21 21 21 20 19 18 18 19 20 21 21 21 20 20 19 19 18 15 16 17 17 16 17 18 17 17 16 16 17 18 19 20 21 20 19 17 16 15 13 12 11 10 10 8 7 8 7 9 9 10 13 14 17 19 20 19 18 17 16 17 15 15 14 14 13 14 14 13 10 4 5
20 20 19 19 19 18 18 18 18 19 19 20 21 21 21 21 21 21 21 22 22 21 20 19 19 19 20 22 22 22 22 22 22 19 17 17 17 16 17 18 18 18 19 20 18 17 16 16 18 19 19 19 18 17 16 14 14 13 11 11 10 9 9 9 9 11 11 12 13 15 17 19 18 16 16 16 16 15 14 13 12 12 13 14 14 13 6 5
21 21 20 20 19 19 19 19 18 19 19 19 20 21 22 22 22 22 22 22 23 23 22 21 20 20 20 21 22 23 23 24 24 21 19 19 17 16 18 19 19 20 21 21 19 16 13 12 13 13 14 16 18 18 17 16 15 13 12 12 11 11 11 11 10 11 11 12 13 14 16 17 17 16 15 14 15 14 13 11 9 9 11 12 14 14 9 5
22 21 21 20 20 20 20 19 19 19 19 19 20 21 21 22 22 22 23 23 23 24 24 23 23 22 21 21 22 23 25 26 25 23 22 20 18 18 19 19 19 20 21 21 20 17 14 12 11 9 10 12 16 17 17 17 16 14 12 12 13 13 13 13 11 10 9 12 13 14 16 17 17 17 15 14 15 14 12 10 9 8 8 9 12 14 11 6
23 22 22 21 21 21 20 20 19 19 19 20 20 20 20 21 21 22 22 23 24 24 24 24 24 24 23 23 22 23 25 25 25 24 24 23 21 21 20 19 19 20 21 21 20 19 17 15 12 11 11 12 14 17 18 18 16 15 14 14 14 14 15 14 13 10 8 8 10 13 15 17 18 18 16 15 15 15 12 9 9 10 7 6 8 11 12 9
24 23 23 23 22 22 21 21 20 20 20 20 20 20 20 20 20 21 22 23 24 24 25 25 25 25 25 24 24 24 24 24 25 26 25 25 24 23 22 19 19 21 21 21 21 21 21 19 16 15 13 13 15 16 17 18 18 17 17 15 15 15 16 16 14 11 9 6 6 11 15 18 18 18 16 15 15 15 13 11 10 11 10 9 7 7 11 11
24 24 24 24 24 23 23 22 22 21 21 21 21 21 20 20 20 20 21 23 24 24 25 26 26 26 26 26 26 26 25 24 25 26 26 26 25 25 24 21 20 21 21 22 23 24 25 24 21 20 18 17 16 16 18 19 19 20 19 16 15 15 16 16 14 11 9 5 4 8 13 18 19 18 17 16 15 15 14 13 11 11 11 11 9 8 10 11
23 24 24 25 25 25 25 24 24 23 23 22 22 22 22 21 21 21 21 22 23 24 25 26 26 27 27 27 27 28 27 26 26 26 27 27 26 26 25 23 23 23 23 23 24 26 27 27 26 24 21 20 18 17 19 20 19 20 20 18 15 15 16 16 15 12 10 7 5 6 10 18 20 19 18 16 16 16 16 14 12 12 12 12 12 10 10 10
24 24 24 25 25 26 26 26 26 25 25 24 23 23 23 23 22 22 22 23 23 24 25 26 27 27 28 29 29 29 28 27 27 26 26 27 27 27 26 26 26 25 25 24 25 26 28 29 29 27 24 24 21 18 19 20 19 20 21 20 16 15 16 16 16 14 11 8 6 7 11 16 18 20 20 17 17 17 16 15 13 13 12 13 13 12 10 8
25 25 25 25 26 27 27 28 28 28 28 27 26 25 25 24 23 23 23 24 24 24 25 26 27 28 28 29 30 30 29 29 29 28 27 27 27 28 28 28 28 28 27 25 26 28 30 31 30 29 28 26 23 19 18 19 20 21 22 21 19 17 17 17 16 15 13 10 7 7 12 16 16 21 22 19 19 18 17 16 14 13 13 12 12 13 12 10
26 27 27 27 27 27 28 28 29 30 30 30 29 28 27 26 25 25 24 25 26 26 26 27 27 28 29 30 31 30 30 30 30 29 28 28 28 28 29 29 29 30 29 28 27 28 30 30 30 31 28 25 24 20 18 18 21 23 23 23 21 19 19 19 17 15 15 13 10 8 11 14 16 23 24 20 19 18 17 17 15 14 14 12 12 13 12 11
27 27 27 27 27 27 28 28 28 29 31 31 31 30 29 28 27 26 26 26 26 27 28 28 29 30 30 30 31 31 31 31 31 31 31 30 29 29 29 29 30 30 31 31 30 28 28 29 30 30 27 27 25 19 16 16 20 23 24 24 23 21 21 21 18 17 17 15 13 12 13 14 16 22 23 20 20 19 18 18 16 15 14 13 13 13 12 11
26 26 26 26 27 27 27 27 28 28 30 31 31 31 31 30 29 28 27 27 27 28 29 30 31 31 32 32 32 33 33 33 32 33 33 32 31 31 31 31 31 32 32 32 30 28 26 27 28 28 29 30 25 19 18 16 19 23 24 24 24 23 22 22 20 18 18 16 16 15 14 15 18 22 22 20 21 21 20 19 17 16 16 15 14 13 11 11
26 26 26 26 26 27 27 28 28 28 29 30 30 31 30 30 29 29 29 28 28 29 30 31 32 33 34 34 33 34 35 35 35 35 35 35 34 33 32 32 33 33 33 32 31 28 26 26 27 29 31 30 25 24 22 18 19 22 23 23 25 25 22 23 22 20 18 17 18 17 14 15 18 21 23 23 23 23 22 21 19 18 17 16 15 14 12 10
27 26 26 27 27 27 28 28 28 28 29 29 29 29 29 29 28 28 29 28 29 29 30 33 34 35 36 36 35 35 36 37 37 37 36 36 35 33 33 33 33 34 34 34 33 31 29 27 27 28 29 29 28 27 24 21 20 21 23 22 24 26 22 22 24 21 18 18 19 18 15 15 18 21 24 24 25 26 24 22 20 19 18 17 16 14 12 11
27 27 27 27 27 27 28 28 28 28 28 29 29 29 29 28 27 27 28 28 29 30 31 33 35 36 37 37 36 37 38 38 38 38 37 37 35 34 33 33 33 34 34 35 34 33 31 29 28 27 29 30 30 29 27 24 21 22 25 24 25 28 24 23 24 21 20 20 20 20 17 16 17 21 24 25 27 28 26 24 22 20 19 17 16 15 14 13
28 28 28 27 27 27 27 28 28 28 28 29 29 29 28 27 26 26 27 28 29 30 32 34 35 37 39 38 38 38 38 39 39 38 38 37 36 35 34 33 33 33 34 35 35 35 33 32 30 30 31 31 30 29 27 25 22 23 26 25 26 28 25 24 24 23 21 20 20 20 17 16 17 19 22 25 28 29 28 26 24 22 20 18 16 15 15 14
28 29 28 28 27 27 27 28 28 28 28 29 29 29 28 27 27 26 27 28 29 31 33 34 36 38 39 39 39 39 39 40 40 40 39 39 37 36 35 34 33 34 35 35 36 35 35 34 34 33 31 29 28 28 29 30 28 27 27 26 26 28 29 27 25 25 21 17 19 18 15 16 16 17 21 25 28 28 28 26 23 22 20 18 17 16 16 15
29 29 29 29 28 28 28 28 28 28 28 29 28 27 27 27 27 27 27 28 30 31 33 34 36 38 38 39 40 40 41 41 41 41 41 40 39 38 36 35 34 34 35 35 36 36 36 36 35 31 29 29 29 31 35 34 29 25 25 28 29 30 31 30 26 26 23 18 19 18 15 15 14 16 21 26 27 27 27 25 23 22 21 20 19 17 16 15
30 30 30 29 29 29 29 28 28 27 27 27 27 25 24 25 26 26 27 28 30 31 33 35 36 37 38 39 40 41 42 42 42 42 43 42 41 40 38 37 35 35 35 35 36 36 37 37 35 32 32 33 33 35 36 31 27 24 24 28 30 30 32 31 27 27 27 22 20 20 17 15 14 16 21 25 26 25 25 23 22 22 21 21 21 19 17 15
31 31 31 30 30 29 28 27 25 24 24 24 23 22 21 22 24 25 25 26 28 30 32 34 36 37 38 39 40 41 42 42 42 43 44 44 43 42 40 38 37 37 36 35 34 36 38 37 36 36 36 35 35 36 34 32 30 28 28 29 30 33 32 29 28 28 29 26 24 23 20 17 16 16 20 23 23 23 22 21 21 21 20 20 19 17 14 13
33 33 32 31 29 28 26 23 21 20 21 21 19 17 17 18 20 22 23 24 25 27 29 32 34 36 37 37 39 40 41 42 42 42 42 43 43 42 41 40 39 39 37 35 34 35 37 38 39 38 36 36 37 37 36 35 33 32 31 29 31 35 31 28 31 31 30 29 26 24 22 19 18 18 19 20 21 21 20 20 20 19 18 17 14 12 13 14
34 34 33 31 29 27 23 21 19 18 18 18 17 16 15 15 16 19 20 21 23 24 26 29 31 33 34 35 36 38 40 41 41 41 41 43 43 42 41 41 41 40 37 36 36 35 36 39 40 38 37 39 40 39 38 36 36 35 33 32 34 36 34 34 35 32 30 30 27 24 23 22 21 20 20 20 19 20 19 18 17 16 16 14 12 12 13 14
35 34 32 30 27 24 21 19 17 16 17 17 16 15 15 15 15 16 17 19 20 21 23 26 28 30 31 32 34 36 38 40 40 41 42 44 44 43 43 43 42 41 39 37 37 36 37 39 38 38 40 41 41 40 39 38 38 38 36 36 36 36 36 36 32 30 30 29 28 27 25 25 25 24 22 21 20 20 19 18 18 18 17 15 14 14 14 15
35 33 31 28 24 21 19 18 17 17 16 16 15 15 15 15 15 14 15 17 18 20 22 23 25 28 29 31 33 34 36 39 40 40 42 44 45 45 45 44 44 43 42 40 38 38 39 38 38 41 43 42 42 41 40 39 40 40 40 40 37 35 36 35 32 32 31 30 32 32 28 26 26 28 26 23 23 22 21 21 21 21 20 19 18 17 16 16
34 32 29 24 20 19 18 18 17 17 17 16 16 16 16 15 14 13 14 16 18 20 21 22 23 25 29 31 32 33 35 37 38 39 41 42 44 44 44 45 46 46 44 41 41 41 40 38 40 43 44 44 44 42 40 40 39 42 44 43 40 38 37 36 34 34 36 36 35 34 33 29 26 29 29 27 28 26 25 25 24 23 23 22 22 19 18 18
32 30 26 22 19 18 18 18 18 17 17 18 18 18 17 15 12 12 14 15 17 18 19 21 21 22 26 30 31 34 36 36 36 38 40 41 42 43 44 46 46 46 44 41 42 42 39 38 41 43 44 44 44 42 42 40 39 43 44 42 42 41 40 39 37 37 40 38 33 34 37 32 27 28 29 30 31 29 28 28 26 26 25 24 24 22 22 21
31 28 23 20 19 18 18 19 19 18 18 18 19 19 17 13 10 11 14 15 15 17 19 20 21 22 25 28 29 32 34 34 35 36 38 40 41 42 44 45 46 47 46 43 43 43 41 40 42 43 43 44 44 44 42 40 41 43 41 41 44 44 42 41 39 40 40 36 34 35 36 32 26 28 30 31 32 31 29 29 28 27 25 25 25 25 25 24
29 26 22 19 18 18 19 19 19 18 17 18 18 16 13 9 8 11 14 14 14 16 18 19 22 23 24 25 27 29 31 32 33 33 35 37 39 40 42 44 45 46 46 44 45 46 44 43 43 44 46 47 46 45 43 41 42 41 39 41 45 44 44 43 41 43 41 37 35 34 34 32 25 26 32 32 31 31 29 28 28 26 26 26 27 27 26 25
28 25 21 18 17 17 19 19 18 17 17 16 14 11 7 5 9 11 12 13 14 15 17 19 21 22 23 25 26 27 29 30 31 31 33 35 37 39 41 42 44 46 46 45 46 45 43 43 45 45 47 47 46 45 44 43 43 40 39 41 43 44 44 44 44 45 42 38 36 34 33 34 29 27 31 33 31 30 29 28 27 26 26 26 26 27 26 26
27 24 21 18 16 17 19 19 19 17 16 13 8 4 3 6 8 9 9 13 15 15 17 19 20 22 23 24 24 25 27 28 29 30 31 33 35 37 40 42 43 45 44 44 45 44 42 43 44 45 46 46 45 44 44 44 43 41 41 41 42 43 43 44 45 45 43 39 39 38 33 34 36 31 29 33 32 29 29 28 27 26 25 26 26 26 26 26
26 23 20 18 16 17 19 20 19 18 15 10 3 2 4 5 6 8 9 12 14 14 15 18 20 21 21 21 22 23 24 26 27 29 29 31 33 35 38 40 41 42 43 43 44 44 43 43 44 44 46 46 46 46 46 45 44 42 42 41 41 41 41 43 44 43 42 41 41 39 34 36 40 34 30 33 33 30 29 28 27 26 26 26 26 25 26 26
26 23 20 18 16 16 18 19 19 18 15 8 1 3 3 4 6 7 9 11 12 12 14 16 18 20 20 19 21 22 22 24 25 26 27 29 31 33 35 38 39 41 43 42 43 42 41 42 45 46 46 46 46 47 47 47 45 43 42 42 41 41 40 39 40 40 39 39 38 35 36 40 40 35 33 34 33 31 30 29 28 27 26 25 25 25 26 26
26 23 21 18 15 15 18 19 19 18 15 8 2 2 3 5 6 8 10 11 12 12 13 15 16 18 18 18 19 20 20 21 22 24 26 27 30 31 33 36 37 39 41 39 39 40 41 43 46 46 45 45 45 45 46 46 44 43 43 43 42 41 40 35 33 35 34 34 34 33 38 42 39 36 36 35 34 32 31 30 29 28 27 25 24 25 25 25
25 24 22 18 14 14 17 17 17 17 15 9 2 2 5 6 6 7 9 11 11 11 12 14 16 17 17 18 19 19 18 18 19 21 23 25 27 29 31 33 35 37 38 38 39 41 41 42 45 46 45 45 44 44 44 43 43 44 44 45 45 44 44 39 33 32 32 33 33 34 40 42 38 36 38 38 36 34 32 31 31 29 28 26 25 25 25 25
24 24 23 20 14 12 14 16 16 16 15 11 3 3 6 7 6 6 8 11 11 11 12 14 16 17 17 18 19 18 17 18 18 18 20 21 23 26 28 30 32 34 36 37 38 39 40 41 44 45 46 45 44 42 43 43 44 45 44 45 46 44 43 41 35 33 33 33 31 33 39 41 39 39 40 40 39 36 34 33 32 31 29 28 27 27 26 26
24 23 23 21 16 12 12 13 14 14 13 12 5 2 6 7 7 7 8 9 10 11 11 13 14 16 17 17 17 17 16 17 18 18 18 19 20 22 24 27 28 30 32 34 36 38 40 41 43 45 45 45 43 41 42 44 44 44 45 47 46 42 40 41 39 37 36 32 27 30 36 38 40 42 41 40 40 38 36 35 33 33 31 30 29 28 27 26
23 22 22 22 18 13 10 10 12 12 12 11 8 3 5 7 7 8 8 9 10 10 10 11 12 15 17 16 16 17 16 16 16 17 18 18 18 19 21 22 24 27 29 32 34 36 38 40 41 44 45 44 43 42 43 45 44 43 45 47 45 43 43 43 41 38 36 31 27 30 36 38 39 40 39 40 41 40 38 36 34 34 33 32 31 30 28 26
22 22 22 22 20 15 10 8 8 10 11 10 8 4 3 7 8 8 9 9 10 10 10 11 12 15 18 19 17 18 18 17 16 16 18 18 18 18 19 19 20 22 26 29 32 34 37 38 39 42 44 43 43 44 44 45 44 44 45 47 46 45 44 43 44 42 36 32 28 29 37 41 39 38 39 41 42 41 39 37 35 34 34 34 32 31 29 26
21 21 21 21 21 18 13 8 6 7 8 9 8 5 2 5 7 9 10 9 10 10 11 12 12 12 15 18 19 19 19 18 17 16 17 18 18 18 18 19 19 20 23 26 29 33 36 36 34 38 43 43 43 43 43 43 44 44 46 47 47 46 45 44 44 44 41 38 32 26 32 40 38 36 39 40 40 41 40 38 36 35 36 35 33 32 30 27
20 20 21 21 21 21 16 10 7 6 6 7 7 6 3 2 5 8 10 9 10 11 11 11 10 8 8 11 14 16 17 17 17 16 16 17 18 18 17 18 19 19 21 23 26 30 33 35 35 38 41 41 41 41 42 43 43 44 45 45 45 46 47 45 41 40 42 43 39 31 32 39 38 36 38 38 38 39 39 38 37 36 37 37 35 33 31 29
19 19 20 20 20 22 20 14 9 5 3 4 5 5 5 3 2 5 8 9 10 11 11 10 9 8 6 6 7 9 11 13 15 16 16 17 18 19 18 18 19 20 21 22 24 27 30 33 35 37 37 38 39 40 41 42 43 44 45 45 45 46 47 46 43 41 40 42 44 39 38 40 39 37 38 37 37 38 37 38 38 37 38 38 36 35 34 32
17 18 19 19 19 21 21 18 13 7 3 2 2 3 4 4 3 2 5 8 10 11 12 11 10 10 9 9 8 7 7 8 10 13 16 17 18 19 19 19 20 21 21 21 23 25 28 31 32 33 34 35 37 38 39 41 43 44 45 45 46 46 45 45 45 44 40 40 43 41 40 42 40 38 39 38 37 37 37 37 38 38 38 39 38 38 37 35
15 16 18 19 19 19 20 20 18 13 7 4 2 1 2 3 3 3 3 5 7 9 11 12 12 12 12 12 11 10 9 8 8 9 12 15 17 19 20 20 21 22 23 23 24 24 26 28 29 30 31 31 33 36 39 41 42 44 44 45 45 45 45 45 45 45 44 43 42 40 40 43 42 39 40 39 38 38 38 38 38 38 39 39 40 41 39 37
13 14 16 17 17 17 18 19 19 17 13 8 4 2 1 1 2 3 4 4 5 6 7 10 11 12 13 13 13 12 12 11 11 10 11 13 16 18 20 21 22 22 23 24 25 25 26 26 28 29 30 31 34 38 40 40 40 42 44 45 45 45 46 46 44 45 46 45 44 43 43 43 41 40 40 40 39 38 38 38 39 40 40 41 41 42 42 39
12 12 13 15 16 16 16 16 18 18 17 13 9 5 2 2 2 3 4 4 5 5 5 6 7 9 11 11 12 13 13 13 14 14 13 14 15 17 19 20 22 23 24 24 25 26 26 27 27 28 29 32 35 36 37 38 39 41 43 44 45 45 46 46 46 46 46 45 45 46 45 43 42 41 41 41 40 39 39 39 39 40 42 43 43 44 44 42
10 10 11 12 13 14 13 14 15 16 16 16 14 10 6 2 3 3 4 4 5 5 5 5 5 6 7 8 9 11 12 13 14 15 15 15 16 17 18 19 20 21 23 24 25 26 26 27 27 28 28 30 31 32 33 36 38 40 42 43 44 44 45 46 47 47 46 45 46 47 46 46 44 42 42 42 42 41 40 39 40 40 43 45 45 46 47 45
10 10 10 10 11 12 12 12 12 13 14 15 15 14 12 6 1 3 4 4 5 5 6 5 6 6 6 6 7 8 9 11 11 12 13 14 15 16 17 17 18 18 20 22 24 25 26 27 27 28 28 28 29 30 31 33 35 37 40 42 43 44 45 45 46 47 47 47 47 46 45 47 47 45 44 44 43 43 42 41 40 40 41 44 46 47 48 48
9 9 8 8 9 10 11 11 11 11 12 12 13 14 14 13 8 2 2 3 4 5 6 6 7 7 7 8 8 8 9 9 10 11 11 11 12 13 15 16 16 16 17 18 19 22 24 26 27 28 28 29 29 29 30 30 32 34 37 39 41 42 43 44 45 46 47 48 48 46 46 47 48 47 47 46 45 45 44 43 42 41 41 42 44 46 47 48
8 9 8 8 8 8 9 9 9 10 10 10 11 12 13 14 14 10 5 2 2 4 6 7 8 9 10 10 11 11 12 12 12 13 13 13 13 13 14 15 15 16 16 17 17 18 20 22 24 26 28 29 30 30 30 30 31 32 34 36 38 40 42 44 45 45 46 48 47 47 48 49 48 48 48 48 48 47 46 46 45 43 43 42 42 44 45 47
7 8 8 8 6 6 7 7 8 8 9 9 10 10 10 11 13 13 11 9 5 1 2 5 7 9 11 12 13 14 15 15 16 16 16 16 17 16 16 17 17 17 18 18 18 19 19 19 21 23 25 27 28 29 30 30 31 33 34 34 35 38 40 42 43 43 45 46 46 47 49 49 48 48 49 49 49 49 48 48 47 46 45 44 43 43 44 45
Wind_Direction
288 286 283 280 277 275 275 273 271 271 271 271 270 269 267 265 262 260 259 258 255 251 247 243 240 238 238 240 243 244 243 242 240 237 233 229 225 218 210 208 209 207 204 202 205 209 215 218 218 219 217 215 213 211 209 207 205 198 190 188 181 159 158 146 135 140 140 143 148 151 154 159 161 160 162 160 157 152 150 153 149 148 141 128 117 101 108 142
288 285 282 279 275 272 270 268 268 267 267 268 268 267 266 264 262 259 258 257 256 253 250 247 243 239 237 237 239 241 243 243 242 239 232 228 227 222 215 211 211 208 202 203 204 204 210 215 217 218 216 214 215 213 210 207 204 198 188 184 178 163 168 159 148 155 154 152 156 159 160 163 166 164 165 165 163 161 160 159 151 152 145 132 124 113 121 158
287 284 282 279 276 272 269 266 265 264 264 265 266 266 265 263 261 259 257 256 256 254 251 248 246 243 239 236 236 237 239 241 242 241 234 231 230 224 218 214 212 208 205 208 210 208 211 218 222 223 219 215 216 216 213 209 205 197 187 183 176 168 174 167 153 158 163 164 166 172 172 171 173 171 171 170 169 170 164 158 151 152 147 137 129 121 132 171
286 284 281 278 276 273 270 268 266 264 263 262 262 262 263 263 261 260 258 255 254 254 252 249 246 244 242 239 236 235 236 238 240 240 237 235 231 226 221 216 213 209 208 212 215 214 212 217 223 225 222 219 218 218 216 212 206 197 189 186 176 171 178 170 155 155 167 175 177 185 187 183 180 176 177 175 176 179 167 154 150 150 147 142 134 126 133 168
286 284 282 279 276 273 271 269 268 267 265 263 261 259 260 260 260 260 258 257 254 253 252 249 246 243 243 242 238 235 235 236 238 238 238 236 232 229 226 219 215 213 210 210 213 213 209 207 207 204 205 213 216 216 215 213 208 198 191 186 177 176 179 173 160 155 165 179 186 194 197 194 189 181 180 180 177 179 169 156 152 148 145 141 137 132 134 154
286 285 284 282 279 276 273 272 271 270 269 268 265 262 260 259 259 259 258 258 255 253 251 249 247 244 241 241 240 238 236 236 236 236 235 235 232 231 229 223 218 216 213 210 210 210 209 204 197 194 195 201 208 209 210 210 205 198 192 184 178 179 180 176 165 155 159 175 189 199 202 203 197 189 184 180 176 177 173 162 151 146 146 141 135 134 136 146
285 286 285 285 283 281 278 276 274 273 272 272 271 269 266 264 262 260 258 257 256 254 252 249 247 245 241 239 239 240 238 235 234 234 233 233 231 231 231 225 220 218 214 208 207 208 210 206 198 198 199 205 207 202 204 206 200 194 191 186 181 183 181 176 166 159 161 162 184 198 202 204 202 196 189 183 179 178 174 166 157 151 153 147 134 134 139 145
286 286 286 286 285 284 282 280 278 276 274 274 274 273 272 270 267 265 261 258 257 255 253 251 248 245 242 239 238 239 239 236 234 233 232 232 230 231 231 226 223 220 216 209 204 204 208 208 203 203 203 208 210 200 200 201 197 193 191 187 185 188 185 175 167 164 166 165 188 199 198 199 199 197 194 188 182 178 174 170 165 158 157 152 143 147 149 149
287 287 286 285 285 284 283 282 280 278 276 276 275 275 273 272 270 268 265 260 257 255 253 252 249 246 243 240 238 237 238 237 236 233 231 231 229 230 229 226 224 221 218 212 206 204 207 208 206 208 208 211 211 202 201 198 196 197 193 188 186 190 188 178 171 168 167 171 190 199 194 196 198 198 196 192 185 180 177 175 170 164 164 160 152 155 158 153
288 287 286 284 283 283 282 281 280 279 278 277 276 276 275 273 271 268 265 261 257 254 252 251 249 247 244 241 239 237 237 236 237 235 232 230 228 228 226 225 224 223 221 214 208 206 209 210 209 209 209 214 213 205 204 197 193 199 195 190 188 188 188 182 177 172 164 164 178 190 190 193 198 199 194 189 188 183 178 177 175 171 169 167 159 157 158 153
288 287 286 285 283 281 280 279 278 278 277 277 277 277 276 274 271 268 264 262 258 253 250 248 248 247 245 242 240 238 236 235 235 236 233 230 227 226 224 224 223 222 222 218 212 207 208 212 212 212 211 216 215 207 209 199 189 197 196 192 192 189 189 184 181 177 168 162 165 182 191 191 193 195 192 188 189 185 179 179 177 174 173 172 166 160 158 156
289 287 285 284 282 280 278 276 276 275 275 275 276 276 276 275 272 268 264 261 258 253 248 245 244 244 244 243 241 238 235 233 233 234 233 230 227 224 224 224 224 224 222 220 216 211 210 211 213 216 215 218 218 210 211 203 192 197 196 194 194 192 191 187 185 184 176 169 165 175 191 193 192 192 191 190 191 187 181 179 178 176 175 174 170 167 164 158
290 288 287 285 283 281 279 276 275 274 273 272 273 274 275 274 272 269 264 260 256 252 247 243 241 240 241 241 241 238 235 232 230 232 233 231 228 224 222 222 224 225 224 223 221 216 212 211 215 217 216 219 219 212 210 205 197 198 195 193 192 193 194 193 192 188 181 178 175 183 195 193 192 192 192 194 193 190 183 178 179 178 176 176 174 173 171 159
293 291 290 288 286 284 282 280 278 276 274 271 271 272 272 272 271 269 265 260 255 250 246 242 238 237 238 238 237 237 235 231 228 228 230 231 229 225 222 220 220 222 223 224 224 221 216 214 215 216 217 219 218 212 210 205 200 200 195 191 191 193 196 196 197 191 187 187 183 190 199 194 190 192 197 201 196 192 186 178 179 180 179 180 177 176 174 162
298 297 295 293 292 290 287 285 283 282 279 275 273 272 272 271 269 268 265 260 254 248 244 241 238 236 236 235 234 234 233 231 229 227 227 228 229 227 223 220 219 219 220 221 221 220 217 216 215 215 218 219 218 214 210 203 201 201 194 190 192 194 197 197 197 193 191 194 191 193 200 196 193 194 201 205 199 194 188 179 181 184 182 183 181 176 169 162
303 302 302 300 299 296 293 290 289 288 285 281 278 275 273 271 268 266 263 259 254 248 243 240 237 235 235 234 232 231 231 231 230 228 227 226 227 228 226 222 221 219 218 218 218 217 215 214 214 215 218 218 216 214 211 203 201 200 191 189 196 197 200 201 197 196 194 196 196 195 195 194 197 201 205 206 200 194 189 181 182 185 187 188 185 175 164 164
308 307 307 306 304 302 299 297 295 293 290 286 283 280 277 273 270 265 261 256 252 248 242 239 237 235 234 233 231 229 229 230 229 227 226 225 225 226 225 223 221 220 219 217 217 216 213 212 210 212 217 218 216 214 211 204 200 200 191 190 199 197 197 200 197 196 193 193 197 195 193 192 197 205 208 206 198 193 189 184 183 185 188 192 188 174 167 172
313 312 311 310 309 307 305 302 299 296 292 288 286 283 280 276 270 264 259 254 251 248 243 239 236 235 233 232 230 229 228 227 226 224 224 224 223 224 223 222 220 219 219 217 217 215 212 211 208 209 212 215 216 214 212 207 202 202 195 194 199 196 197 201 196 193 189 187 194 197 198 196 198 205 207 203 197 193 190 187 185 186 187 191 191 179 175 179
319 317 316 315 314 312 308 304 301 296 292 290 287 284 281 276 269 263 258 253 249 246 244 241 237 235 234 232 230 228 226 225 223 221 221 221 221 222 222 221 218 216 216 216 216 214 212 211 210 210 208 211 215 213 213 210 203 201 196 194 195 196 201 201 193 192 188 183 189 194 199 201 202 203 200 197 196 194 193 190 187 187 187 189 191 188 184 184
323 321 320 319 317 314 310 306 302 299 295 291 288 284 277 272 267 261 256 251 246 242 241 239 236 235 233 231 229 227 224 222 220 218 218 218 217 218 219 219 217 215 215 216 215 212 211 211 211 209 207 208 210 212 214 210 203 198 195 195 195 198 203 199 192 192 187 185 191 192 197 203 204 200 194 194 196 197 196 193 190 190 191 191 191 193 192 188
325 324 324 323 321 317 313 310 306 302 296 292 289 283 276 270 265 260 254 249 243 239 237 235 234 232 231 229 227 226 224 221 219 216 215 215 215 215 215 215 215 214 213 214 214 212 210 210 208 205 204 206 207 211 214 210 204 197 196 197 195 199 204 198 193 193 187 189 196 195 198 204 203 198 195 196 197 198 198 197 197 197 198 196 194 196 197 190
328 328 328 327 324 320 317 313 308 302 296 292 291 286 277 269 263 259 254 248 243 238 235 233 231 230 228 227 225 224 223 221 218 216 214 213 213 212 212 212 211 211 211 212 213 213 211 208 205 204 204 204 206 211 211 209 206 199 197 196 195 202 206 198 195 196 190 192 197 196 199 204 204 202 201 199 197 198 202 204 205 205 204 204 202 203 202 194
333 333 333 330 327 324 321 317 312 306 300 299 298 292 283 272 264 259 254 248 243 237 233 231 230 228 225 224 223 221 221 219 217 215 212 211 212 211 211 210 210 210 208 207 209 213 211 208 206 204 203 203 207 209 208 206 205 203 199 194 199 204 203 201 200 197 192 194 197 196 199 206 210 209 206 203 201 204 208 213 214 212 212 212 215 219 214 204
337 337 336 333 331 328 327 324 319 312 308 309 308 301 292 282 270 262 255 249 243 236 231 229 228 226 222 221 220 219 219 218 216 213 210 209 210 210 209 209 209 209 206 205 205 208 210 209 206 203 202 204 207 207 206 204 203 205 200 195 202 203 201 206 202 194 194 197 197 196 201 209 212 215 216 211 210 213 216 221 225 227 227 226 229 235 226 215
340 339 338 336 334 332 332 330 324 317 314 313 310 304 297 289 277 264 254 247 241 235 229 225 224 222 219 217 217 217 217 217 215 212 209 208 207 207 207 207 208 206 204 204 203 203 206 208 206 202 202 205 206 207 206 203 202 204 201 200 204 201 203 208 201 194 197 198 197 195 201 209 211 216 220 218 219 220 222 227 232 236 238 236 234 234 226 217
343 342 340 338 337 336 335 333 326 320 317 312 308 304 298 292 281 264 249 242 237 231 226 222 219 216 214 214 214 214 216 215 214 211 209 207 206 206 206 205 206 205 202 201 202 203 203 202 201 202 203 204 205 207 207 204 202 203 202 202 204 202 205 209 202 197 199 201 198 192 197 206 209 214 218 220 223 225 227 230 232 236 239 238 234 229 222 215
346 346 343 341 340 337 335 332 328 323 317 312 309 303 297 292 281 261 243 236 232 226 222 219 216 212 210 211 210 210 212 213 212 212 209 208 206 205 205 203 204 204 202 199 202 203 201 197 199 203 203 203 204 205 206 206 203 204 203 201 201 202 206 208 205 202 203 204 198 191 198 204 206 210 212 218 223 225 228 230 232 234 237 238 236 231 223 216
350 349 347 343 340 336 335 335 332 326 320 316 312 303 295 288 274 246 231 229 226 220 217 214 212 208 208 210 208 208 210 209 209 210 209 208 207 205 205 203 203 204 201 200 204 204 198 195 199 203 204 204 204 204 206 205 205 207 205 201 203 204 206 207 206 206 209 207 199 196 202 205 209 212 211 216 220 222 227 229 230 231 232 236 236 233 226 220
353 352 349 344 341 339 339 339 335 329 323 318 312 301 292 281 256 227 224 224 216 211 211 208 205 204 206 208 208 209 210 208 208 208 207 207 206 205 206 203 202 203 200 200 206 204 197 195 198 201 203 205 204 204 205 205 207 210 205 203 207 207 207 209 208 210 211 207 202 203 203 201 209 214 212 215 218 219 223 226 228 228 229 232 233 232 228 224
356 355 350 345 343 343 343 342 337 330 325 320 312 300 287 265 227 215 220 218 208 206 208 205 203 203 203 206 207 208 208 207 207 207 206 207 206 205 206 204 202 203 200 201 206 203 196 195 196 199 202 204 204 203 204 205 208 209 204 206 210 209 210 211 211 213 213 207 204 207 203 196 204 214 212 213 216 217 219 222 225 227 227 229 231 231 229 226
358 357 352 346 345 348 348 347 341 334 330 326 317 298 274 225 206 211 211 204 201 203 203 202 203 202 201 203 205 206 205 205 204 204 205 205 205 204 205 203 203 202 201 203 207 202 195 196 197 198 202 204 204 203 203 205 208 207 205 207 210 211 212 213 215 217 215 210 207 210 205 198 204 211 209 211 214 215 215 219 223 225 226 229 230 231 229 226
359 358 354 348 348 352 354 354 350 343 339 336 327 292 214 188 200 208 199 195 198 199 199 198 198 200 202 203 202 202 203 203 202 202 203 203 204 204 204 203 202 202 202 204 206 203 199 200 198 197 201 204 204 204 204 206 207 206 206 207 209 212 213 214 217 219 217 213 211 211 206 203 210 210 206 210 212 212 212 215 219 221 223 226 228 228 226 224
1 359 356 351 350 355 358 360 357 353 351 348 344 159 164 178 195 198 193 197 198 196 198 197 195 198 201 200 199 198 200 202 201 201 201 201 203 204 204 203 202 202 202 203 205 206 205 202 199 199 202 203 203 204 204 206 207 207 207 208 209 211 213 215 218 219 218 216 214 212 207 209 214 211 207 210 210 209 210 211 215 217 219 224 225 225 224 221
4 1 357 353 352 357 1 4 3 2 3 3 27 136 143 165 185 192 192 195 196 195 195 194 195 198 198 196 197 198 199 199 199 199 199 200 201 201 203 202 200 202 203 202 205 208 207 204 202 201 201 201 203 205 205 205 206 207 208 209 209 211 214 217 221 221 219 219 217 212 209 215 218 212 209 212 210 207 207 208 212 214 218 222 223 222 221 219
7 4 360 356 357 0 4 8 8 8 13 17 22 124 140 164 182 190 189 189 192 193 190 191 195 199 198 196 196 198 200 200 198 197 198 199 200 201 202 201 201 202 202 203 206 207 208 207 204 202 202 202 203 205 206 205 205 207 208 209 209 210 212 213 220 222 218 220 219 210 210 217 217 211 211 213 212 207 204 207 209 212 217 221 221 220 218 217
8 8 5 2 2 3 6 11 13 13 19 23 8 167 148 163 183 190 189 187 190 190 186 188 194 197 198 198 196 196 197 199 200 200 199 199 200 201 203 203 202 202 201 202 204 206 209 208 204 204 205 204 203 205 205 205 206 207 208 210 210 210 210 209 214 218 213 216 219 210 212 218 216 211 211 212 213 208 204 205 207 210 215 219 220 219 216 217
8 10 9 6 4 5 7 11 17 19 23 25 16 179 151 153 174 189 193 191 191 192 189 191 194 196 197 197 195 193 191 193 198 203 203 202 202 203 205 206 204 203 203 203 203 204 207 208 205 206 208 206 204 206 206 205 207 206 207 211 212 212 213 212 215 219 214 215 219 215 217 221 217 214 212 210 212 210 205 205 206 209 213 217 219 218 217 217
8 10 12 10 7 6 6 10 19 24 26 28 30 155 153 149 164 184 195 197 200 201 199 198 195 193 193 192 190 186 186 194 199 200 202 202 203 205 207 209 208 205 203 203 203 202 204 207 207 208 210 209 207 207 208 207 207 206 207 210 211 212 215 215 216 219 216 213 215 216 218 219 217 215 212 210 212 212 208 205 206 209 211 214 217 218 218 217
8 10 13 14 12 7 2 5 17 27 29 32 38 76 153 154 161 180 192 199 208 213 212 209 200 190 186 186 188 185 184 193 201 201 202 202 202 204 206 209 210 208 205 203 202 200 202 207 209 210 212 212 210 209 210 208 206 207 209 211 211 210 213 214 215 218 216 211 211 218 219 219 217 215 213 212 212 213 212 208 207 209 210 212 215 217 218 217
8 11 14 17 17 13 6 359 12 27 31 35 43 58 145 161 164 179 192 200 209 216 220 220 214 199 188 184 187 189 188 191 196 198 200 202 201 202 203 204 206 207 207 205 201 199 200 205 210 211 212 214 213 212 211 209 207 206 208 211 212 211 213 214 214 215 212 207 210 222 226 223 218 215 213 213 213 213 215 212 208 208 209 211 213 215 216 216
8 12 15 17 19 19 15 3 2 24 31 33 42 52 104 165 175 184 192 200 208 217 223 229 230 216 201 192 190 192 194 194 196 197 197 199 201 202 201 200 199 201 205 205 203 201 200 202 208 211 211 214 213 212 213 213 211 209 210 211 211 211 214 215 217 219 215 210 207 215 226 223 218 217 215 214 214 214 215 214 211 209 210 210 212 214 214 213
8 12 15 17 19 22 23 17 10 17 23 28 39 50 69 143 185 191 193 196 204 215 223 234 242 234 216 204 196 196 198 198 200 201 198 197 199 200 201 199 197 197 199 203 205 204 202 203 208 210 210 213 213 213 214 214 213 212 213 214 212 213 214 213 216 219 219 217 213 213 223 223 217 218 217 215 215 214 214 215 212 210 210 210 212 214 213 212
9 12 15 17 18 22 27 28 25 19 13 24 39 47 58 82 158 195 202 202 203 209 216 226 238 239 236 231 216 207 205 203 203 202 200 199 199 199 200 198 197 196 197 199 202 205 205 207 211 211 210 212 213 214 215 215 215 214 214 215 214 215 216 214 216 218 217 219 218 218 227 226 217 216 218 216 216 215 214 215 214 211 210 210 212 214 214 212
9 12 15 17 18 23 28 30 31 33 31 38 53 58 64 74 94 164 204 211 209 212 216 221 227 231 236 246 250 246 233 222 215 211 207 205 202 200 200 198 197 197 198 199 200 202 204 207 210 212 212 213 214 214 215 215 216 215 215 216 216 216 217 217 218 220 219 220 219 219 227 228 219 216 218 218 218 216 214 214 214 213 211 211 213 214 214 213
8 11 15 18 20 23 27 30 33 35 34 33 47 70 85 94 99 116 159 197 209 215 221 225 226 226 229 234 239 240 238 233 230 226 221 216 211 207 205 202 200 200 200 201 202 202 204 206 207 210 213 214 214 215 215 214 215 216 216 216 217 217 218 218 219 221 222 223 221 220 225 226 221 218 219 220 221 219 216 214 213 213 213 212 212 213 213 214
6 10 14 19 21 23 25 29 34 36 36 35 28 4 334 169 149 138 137 150 176 197 213 222 225 226 226 227 226 225 226 225 224 226 227 225 221 217 214 209 205 204 203 204 205 205 206 206 206 208 211 211 211 214 214 213 214 216 217 217 218 218 218 219 220 222 223 224 223 223 225 227 226 223 221 221 223 222 219 217 214 213 213 212 212 212 212 213
5 9 14 19 21 23 23 26 32 36 39 39 34 22 343 277 225 196 171 160 161 162 174 194 209 219 223 224 223 220 220 222 223 224 225 225 225 224 223 220 215 211 209 208 209 210 210 211 210 211 214 214 213 213 214 213 213 215 217 218 219 219 220 220 220 222 224 225 226 225 225 228 229 227 225 224 225 225 223 220 217 214 213 213 213 213 213 214
5 7 14 19 20 22 22 24 30 35 38 40 40 37 27 338 260 235 213 200 190 176 170 172 178 193 206 212 217 216 217 220 223 226 227 226 225 226 226 226 224 221 217 215 214 214 215 217 217 217 219 219 218 217 216 215 214 215 216 218 219 220 220 221 222 224 224 226 227 227 227 229 230 229 229 228 227 228 227 224 221 217 215 214 215 215 215 217
4 7 13 17 18 21 21 22 28 32 36 40 42 41 38 34 349 245 232 224 217 209 203 199 194 194 197 202 209 210 212 217 219 222 224 224 224 225 225 226 227 226 225 223 221 220 220 221 222 223 224 225 225 224 222 220 218 217 217 217 219 220 221 222 224 225 226 228 229 229 229 231 231 232 233 233 232 231 230 228 225 222 219 217 217 218 219 220
3 6 11 15 15 18 19 21 24 28 32 37 41 43 43 44 47 51 226 227 228 227 228 226 222 221 221 220 222 221 219 220 220 219 220 219 220 220 220 221 222 223 225 225 225 225 224 224 225 226 227 228 229 229 229 228 226 223 221 220 219 220 221 222 224 226 227 228 229 230 231 232 232 233 234 235 235 235 234 232 230 226 223 220 219 220 221 222
1 4 8 12 13 14 17 17 19 24 29 33 37 41 44 48 53 58 62 74 222 233 238 239 236 236 235 235 236 236 234 233 233 231 230 229 228 225 222 220 218 218 220 222 224 225 225 225 226 227 229 230 231 231 232 232 232 231 228 225 223 223 223 223 224 226 228 229 230 232 232 232 232 233 234 235 236 236 236 236 234 231 228 224 222 221 222 223
353 2 7 8 7 10 15 15 14 20 27 30 33 37 42 48 55 60 62 63 67 81 248 250 249 247 246 244 244 243 242 242 241 241 239 238 238 236 234 231 227 224 223 222 222 223 224 225 225 227 229 230 231 232 233 234 235 235 232 229 227 227 226 225 225 226 228 229 231 233 232 232 233 235 235 235 236 236 237 237 237 235 232 229 226 224 224 225
Height
5861 5860 5860 5859 5859 5858 5858 5857 5857 5856 5856 5856 5856 5856 5857 5858 5859 5860 5860 5861 5862 5863 5864 5865 5866 5867 5868 5869 5870 5871 5871 5872 5873 5874 5876 5877 5878 5879 5881 5882 5883 5884 5885 5886 5886 5887 5888 5889 5890 5891 5893 5895 5897 5898 5900 5901 5903 5904 5905 5906 5906 5906 5907 5907 5907 5906 5906 5906 5905 5906 5907 5907 5908 5909 5910 5911 5912 5913 5914 5914 5914 5916 5917 5917 5918 5919 5920 5921
5859 5858 5857 5857 5856 5856 5855 5855 5854 5854 5854 5853 5853 5854 5854 5855 5856 5857 5858 5858 5859 5860 5861 5862 5864 5865 5866 5867 5868 5868 5869 5870 5871 5872 5874 5875 5876 5878 5880 5881 5881 5882 5884 5884 5884 5885 5886 5887 5888 5889 5892 5894 5896 5897 5899 5900 5902 5904 5905 5905 5905 5906 5907 5907 5907 5907 5907 5907 5907 5907 5908 5908 5909 5909 5910 5910 5911 5912 5913 5913 5914 5916 5917 5917 5918 5919 5921 5921
5856 5855 5855 5854 5853 5853 5852 5852 5852 5852 5851 5851 5851 5851 5851 5852 5853 5854 5854 5855 5856 5857 5858 5860 5861 5862 5863 5864 5865 5866 5867 5868 5868 5870 5872 5873 5874 5876 5878 5879 5880 5881 5882 5882 5883 5884 5885 5886 5887 5888 5891 5893 5894 5896 5898 5900 5901 5903 5904 5904 5905 5906 5906 5907 5907 5907 5907 5908 5908 5908 5908 5909 5909 5909 5910 5911 5911 5912 5912 5913 5914 5916 5917 5918 5918 5919 5921 5922
5853 5852 5852 5851 5851 5850 5850 5849 5849 5849 5849 5848 5848 5848 5848 5848 5849 5850 5851 5852 5853 5854 5855 5856 5858 5859 5860 5861 5862 5863 5864 5865 5866 5868 5870 5871 5873 5874 5875 5877 5878 5879 5880 5881 5883 5884 5885 5886 5887 5888 5890 5892 5893 5894 5897 5898 5900 5902 5903 5904 5904 5905 5906 5907 5907 5907 5908 5908 5908 5909 5909 5909 5909 5910 5910 5911 5912 5912 5913 5914 5915 5916 5917 5918 5918 5918 5920 5922
5850 5849 5849 5848 5848 5847 5847 5847 5846 5846 5846 5846 5845 5845 5845 5845 5846 5847 5848 5849 5850 5850 5852 5853 5854 5856 5857 5858 5859 5860 5861 5862 5864 5866 5867 5869 5871 5872 5873 5875 5876 5878 5879 5880 5882 5883 5885 5885 5886 5888 5889 5890 5891 5893 5895 5897 5899 5901 5902 5903 5904 5905 5905 5906 5907 5907 5908 5908 5908 5909 5909 5909 5909 5910 5910 5912 5913 5913 5914 5915 5915 5917 5918 5919 5919 5919 5920 5922
5847 5846 5846 5845 5845 5845 5844 5844 5844 5843 5843 5843 5843 5843 5843 5843 5843 5844 5845 5845 5846 5847 5848 5849 5851 5852 5854 5855 5856 5857 5858 5860 5861 5863 5865 5867 5869 5870 5871 5873 5875 5876 5877 5879 5881 5882 5884 5884 5886 5887 5888 5889 5889 5891 5893 5895 5898 5900 5901 5902 5903 5904 5905 5905 5906 5907 5907 5908 5908 5909 5909 5909 5909 5909 5910 5912 5913 5914 5914 5915 5916 5917 5918 5919 5919 5919 5920 5922
5844 5843 5843 5842 5842 5842 5841 5841 5841 5840 5840 5839 5840 5840 5840 5840 5841 5841 5842 5842 5843 5844 5845 5846 5847 5848 5850 5851 5853 5854 5855 5857 5859 5860 5862 5864 5866 5867 5869 5871 5873 5874 5875 5877 5879 5881 5882 5883 5884 5885 5886 5887 5888 5890 5891 5894 5896 5898 5900 5901 5902 5903 5904 5904 5905 5905 5906 5907 5908 5908 5908 5908 5909 5910 5910 5911 5912 5913 5914 5915 5916 5916 5918 5919 5920 5920 5921 5922
5841 5840 5840 5839 5839 5839 5838 5838 5837 5837 5836 5836 5836 5837 5837 5838 5838 5838 5839 5839 5839 5840 5841 5842 5843 5845 5846 5848 5849 5850 5852 5854 5855 5857 5859 5861 5863 5864 5866 5869 5871 5872 5873 5875 5877 5878 5879 5881 5882 5883 5884 5885 5887 5889 5890 5892 5894 5897 5898 5899 5901 5902 5903 5904 5904 5905 5906 5907 5907 5907 5907 5908 5909 5910 5910 5911 5912 5913 5914 5915 5915 5916 5918 5919 5920 5920 5921 5921
5837 5836 5836 5835 5835 5835 5835 5834 5834 5833 5833 5832 5833 5833 5833 5834 5834 5835 5835 5836 5836 5837 5837 5838 5840 5841 5842 5844 5845 5847 5849 5851 5852 5854 5856 5858 5860 5862 5864 5867 5868 5869 5870 5872 5874 5876 5877 5878 5880 5881 5883 5884 5885 5887 5888 5890 5893 5895 5897 5898 5900 5901 5903 5903 5903 5904 5905 5906 5906 5907 5907 5907 5909 5909 5910 5912 5912 5913 5914 5914 5915 5916 5917 5918 5919 5920 5921 5922
5833 5833 5832 5831 5831 5830 5830 5830 5830 5829 5829 5829 5829 5829 5829 5830 5830 5831 5831 5832 5833 5833 5834 5834 5836 5837 5838 5840 5842 5843 5845 5847 5849 5851 5853 5855 5857 5859 5861 5863 5865 5867 5868 5870 5872 5874 5875 5876 5877 5879 5881 5882 5884 5886 5887 5889 5892 5894 5896 5897 5899 5901 5902 5902 5903 5903 5904 5905 5906 5906 5907 5908 5908 5909 5910 5911 5912 5912 5913 5914 5915 5916 5917 5918 5919 5920 5921 5922
5830 5829 5828 5827 5827 5826 5826 5826 5825 5824 5824 5824 5825 5825 5825 5825 5826 5826 5827 5828 5829 5829 5830 5831 5832 5833 5834 5836 5837 5840 5842 5844 5846 5848 5850 5852 5854 5856 5858 5860 5862 5863 5865 5867 5869 5871 5872 5874 5876 5878 5879 5880 5883 5886 5887 5888 5891 5893 5894 5896 5898 5900 5901 5902 5902 5903 5903 5904 5905 5906 5906 5907 5908 5908 5909 5910 5911 5912 5913 5914 5915 5916 5917 5918 5919 5920 5921 5922
5826 5825 5824 5823 5822 5822 5821 5821 5820 5819 5819 5820 5820 5820 5820 5820 5821 5821 5822 5823 5824 5825 5826 5827 5828 5829 5830 5831 5833 5836 5838 5840 5842 5844 5846 5848 5851 5852 5854 5857 5859 5861 5862 5864 5866 5868 5870 5872 5874 5876 5878 5880 5882 5885 5886 5887 5889 5891 5893 5895 5897 5899 5899 5900 5901 5902 5903 5904 5905 5905 5905 5906 5906 5907 5907 5909 5909 5911 5912 5914 5915 5916 5917 5918 5919 5920 5920 5921
5822 5821 5820 5819 5818 5817 5816 5816 5815 5814 5814 5814 5815 5815 5815 5815 5816 5816 5817 5818 5819 5820 5821 5822 5823 5825 5826 5827 5829 5832 5834 5836 5838 5840 5842 5845 5847 5849 5851 5854 5856 5858 5860 5861 5863 5866 5868 5871 5872 5875 5878 5879 5880 5883 5885 5887 5888 5889 5891 5894 5896 5897 5898 5899 5900 5901 5902 5903 5904 5905 5905 5905 5905 5906 5906 5908 5909 5910 5912 5913 5914 5915 5917 5918 5919 5920 5920 5921
5818 5817 5815 5814 5813 5812 5811 5811 5810 5809 5808 5808 5809 5809 5809 5810 5810 5810 5811 5812 5813 5815 5816 5817 5819 5820 5821 5823 5825 5827 5829 5832 5834 5836 5838 5841 5843 5846 5848 5850 5852 5854 5857 5859 5861 5864 5867 5869 5871 5874 5875 5876 5879 5883 5885 5886 5887 5888 5890 5892 5895 5896 5897 5898 5899 5900 5901 5902 5903 5904 5904 5904 5905 5905 5906 5907 5908 5909 5911 5913 5914 5915 5916 5917 5918 5919 5920 5921
5814 5812 5811 5809 5808 5807 5806 5805 5804 5803 5802 5802 5803 5803 5804 5804 5804 5805 5805 5806 5808 5809 5811 5812 5813 5815 5816 5818 5820 5822 5824 5827 5829 5832 5834 5837 5839 5842 5844 5847 5849 5851 5854 5856 5859 5862 5865 5867 5870 5871 5873 5875 5879 5881 5883 5885 5886 5887 5889 5892 5894 5895 5896 5897 5898 5899 5900 5901 5902 5903 5904 5904 5904 5904 5905 5906 5907 5909 5911 5912 5913 5914 5915 5916 5918 5919 5920 5921
5809 5808 5806 5804 5803 5802 5800 5800 5799 5798 5797 5796 5797 5797 5797 5798 5798 5799 5799 5800 5802 5803 5805 5806 5808 5810 5811 5813 5815 5818 5819 5822 5825 5828 5830 5833 5836 5838 5841 5844 5846 5848 5850 5853 5856 5859 5862 5865 5867 5869 5871 5874 5877 5879 5881 5884 5885 5886 5888 5891 5892 5893 5894 5895 5897 5898 5898 5900 5901 5902 5903 5903 5902 5903 5904 5905 5906 5908 5910 5911 5912 5913 5914 5915 5917 5918 5919 5920
5805 5803 5801 5800 5798 5797 5795 5794 5793 5792 5791 5791 5791 5791 5791 5791 5792 5792 5793 5794 5795 5797 5799 5800 5802 5804 5806 5808 5810 5812 5815 5817 5820 5823 5826 5829 5833 5835 5838 5840 5843 5845 5848 5850 5853 5856 5859 5861 5865 5867 5869 5871 5874 5877 5879 5881 5884 5885 5886 5888 5890 5892 5892 5893 5895 5896 5897 5898 5900 5901 5902 5901 5901 5902 5903 5904 5905 5907 5909 5910 5911 5913 5914 5915 5917 5918 5919 5920
5800 5798 5797 5795 5794 5792 5790 5789 5788 5787 5785 5785 5785 5784 5784 5785 5785 5786 5787 5788 5789 5791 5792 5794 5797 5798 5800 5802 5805 5807 5810 5813 5816 5819 5822 5826 5829 5832 5834 5837 5839 5842 5845 5847 5850 5852 5855 5858 5861 5864 5865 5868 5872 5875 5878 5881 5883 5884 5885 5887 5889 5891 5891 5891 5893 5894 5896 5897 5899 5900 5901 5901 5901 5902 5903 5904 5905 5907 5908 5910 5911 5912 5914 5915 5916 5917 5918 5919
5796 5794 5792 5790 5789 5787 5785 5783 5782 5781 5780 5779 5778 5778 5778 5778 5779 5780 5781 5782 5783 5785 5786 5788 5791 5792 5794 5797 5800 5803 5806 5808 5811 5814 5817 5821 5825 5828 5831 5834 5836 5839 5841 5844 5846 5849 5852 5855 5857 5860 5864 5867 5871 5875 5876 5877 5878 5880 5883 5886 5888 5890 5889 5889 5891 5893 5894 5896 5897 5899 5900 5901 5901 5901 5902 5904 5905 5907 5908 5910 5912 5913 5914 5915 5916 5917 5918 5919
5792 5790 5788 5785 5783 5781 5779 5778 5776 5775 5774 5772 5772 5773 5772 5772 5773 5774 5775 5776 5777 5778 5780 5782 5784 5786 5789 5792 5795 5797 5800 5803 5806 5809 5813 5816 5820 5824 5827 5830 5833 5835 5838 5840 5843 5846 5849 5851 5855 5859 5863 5866 5868 5871 5870 5872 5876 5879 5882 5884 5886 5887 5887 5888 5890 5892 5893 5894 5896 5899 5900 5900 5901 5901 5903 5905 5906 5907 5909 5911 5912 5913 5913 5914 5915 5916 5917 5918
5788 5786 5783 5780 5778 5776 5774 5772 5770 5769 5768 5766 5766 5767 5767 5767 5767 5768 5769 5770 5771 5773 5774 5776 5778 5780 5783 5786 5789 5792 5795 5798 5801 5804 5808 5811 5815 5819 5823 5826 5829 5832 5834 5837 5840 5843 5845 5848 5853 5857 5859 5861 5864 5865 5866 5871 5876 5879 5882 5883 5885 5886 5885 5886 5889 5891 5892 5894 5896 5898 5899 5901 5901 5902 5903 5904 5906 5907 5909 5911 5912 5913 5913 5913 5914 5915 5916 5917
5784 5781 5778 5775 5772 5770 5768 5767 5765 5764 5762 5761 5761 5762 5762 5762 5761 5762 5763 5764 5765 5767 5768 5770 5772 5774 5777 5780 5783 5787 5790 5792 5796 5799 5803 5807 5811 5814 5818 5822 5825 5827 5830 5834 5837 5840 5842 5846 5849 5852 5854 5858 5860 5861 5864 5869 5873 5877 5879 5881 5884 5883 5883 5886 5889 5890 5891 5893 5894 5897 5899 5901 5902 5903 5903 5904 5906 5908 5909 5911 5912 5913 5914 5914 5914 5915 5916 5917
5779 5776 5773 5770 5768 5765 5764 5762 5761 5759 5758 5757 5757 5757 5757 5757 5757 5756 5757 5758 5759 5761 5763 5764 5766 5769 5772 5775 5778 5782 5784 5787 5791 5795 5800 5804 5807 5810 5815 5819 5821 5823 5827 5830 5833 5837 5840 5843 5845 5848 5851 5855 5856 5858 5862 5866 5871 5874 5877 5880 5881 5881 5883 5886 5885 5887 5890 5891 5893 5896 5899 5901 5902 5903 5904 5905 5907 5908 5909 5910 5911 5913 5914 5915 5915 5915 5916 5917
5775 5772 5769 5766 5763 5761 5760 5758 5757 5756 5754 5754 5754 5753 5753 5753 5752 5752 5753 5754 5755 5756 5758 5760 5762 5765 5767 5770 5774 5777 5779 5783 5787 5791 5795 5799 5803 5807 5811 5814 5817 5820 5824 5826 5829 5833 5837 5839 5841 5845 5849 5850 5852 5855 5859 5863 5867 5870 5874 5877 5877 5878 5881 5880 5882 5887 5889 5890 5893 5896 5899 5900 5901 5903 5904 5905 5907 5908 5909 5910 5910 5910 5912 5913 5914 5915 5916 5917
5772 5769 5766 5763 5760 5758 5757 5755 5754 5753 5752 5751 5751 5751 5750 5749 5749 5749 5750 5751 5751 5753 5755 5757 5759 5761 5764 5767 5769 5772 5775 5779 5782 5786 5790 5794 5798 5803 5806 5810 5814 5817 5820 5823 5826 5829 5831 5835 5839 5843 5844 5846 5849 5852 5856 5860 5863 5867 5871 5873 5873 5876 5878 5878 5883 5888 5889 5890 5892 5895 5898 5899 5900 5902 5903 5905 5907 5908 5909 5909 5909 5909 5909 5911 5912 5913 5915 5916
5769 5766 5763 5760 5758 5756 5754 5753 5752 5751 5750 5749 5749 5748 5747 5746 5746 5746 5747 5748 5749 5750 5752 5754 5756 5758 5760 5763 5765 5769 5772 5775 5778 5782 5786 5790 5794 5797 5801 5806 5809 5812 5815 5819 5822 5824 5826 5831 5836 5838 5840 5843 5846 5849 5853 5856 5860 5863 5866 5868 5871 5874 5876 5878 5883 5885 5887 5888 5888 5892 5896 5897 5899 5900 5902 5904 5905 5906 5907 5907 5907 5907 5908 5909 5909 5911 5913 5914
5767 5763 5761 5758 5756 5754 5753 5751 5750 5749 5747 5747 5746 5745 5744 5744 5743 5744 5745 5746 5746 5747 5749 5751 5753 5754 5756 5759 5762 5766 5768 5771 5775 5779 5782 5786 5790 5794 5798 5801 5804 5807 5811 5815 5818 5819 5823 5828 5832 5834 5836 5840 5842 5846 5850 5853 5857 5859 5860 5864 5868 5871 5873 5876 5880 5882 5883 5883 5885 5891 5893 5894 5896 5897 5899 5901 5902 5904 5905 5905 5906 5907 5907 5908 5908 5910 5911 5912
5765 5762 5759 5757 5755 5753 5751 5749 5748 5747 5745 5744 5743 5742 5742 5741 5741 5741 5743 5744 5744 5745 5747 5749 5751 5752 5754 5756 5760 5762 5763 5768 5772 5775 5779 5783 5787 5791 5794 5797 5801 5804 5809 5813 5814 5816 5821 5825 5828 5831 5834 5837 5840 5844 5847 5850 5854 5854 5857 5862 5865 5867 5869 5872 5876 5879 5879 5881 5886 5889 5890 5893 5895 5896 5897 5899 5900 5902 5903 5904 5905 5906 5907 5908 5908 5910 5911 5911
5763 5760 5758 5755 5753 5751 5750 5748 5746 5745 5743 5742 5741 5739 5739 5739 5739 5740 5741 5742 5742 5743 5745 5747 5749 5750 5752 5755 5757 5760 5762 5766 5768 5772 5776 5779 5783 5786 5789 5793 5797 5801 5805 5809 5810 5813 5817 5821 5824 5828 5831 5834 5837 5841 5844 5848 5850 5851 5856 5861 5861 5864 5867 5869 5873 5875 5877 5881 5885 5886 5888 5893 5895 5894 5895 5896 5897 5900 5901 5903 5904 5905 5906 5907 5907 5909 5910 5912
5762 5759 5757 5755 5753 5751 5749 5747 5745 5743 5742 5740 5738 5737 5736 5737 5738 5739 5740 5740 5741 5742 5744 5746 5747 5749 5751 5754 5756 5758 5761 5764 5767 5770 5773 5776 5780 5783 5786 5791 5795 5798 5802 5805 5806 5807 5812 5816 5819 5823 5826 5829 5833 5836 5840 5844 5846 5849 5855 5857 5858 5862 5864 5867 5870 5871 5874 5879 5882 5884 5887 5891 5893 5891 5891 5893 5895 5898 5900 5901 5902 5904 5905 5905 5906 5907 5909 5911
5761 5758 5756 5754 5752 5750 5748 5746 5744 5742 5740 5738 5736 5735 5735 5736 5737 5737 5738 5739 5741 5742 5743 5745 5747 5749 5750 5752 5754 5757 5759 5762 5765 5768 5771 5774 5777 5780 5783 5787 5791 5795 5799 5802 5803 5806 5811 5813 5815 5818 5822 5826 5830 5834 5837 5841 5843 5848 5851 5853 5856 5859 5861 5864 5866 5867 5871 5877 5881 5882 5885 5889 5889 5887 5888 5891 5893 5896 5898 5900 5901 5903 5904 5905 5906 5907 5908 5910
5760 5757 5755 5753 5752 5750 5747 5745 5743 5741 5739 5736 5735 5734 5734 5735 5736 5737 5737 5739 5740 5741 5742 5744 5746 5748 5749 5751 5753 5755 5758 5760 5763 5766 5768 5771 5774 5777 5780 5784 5788 5792 5796 5799 5802 5805 5809 5810 5812 5816 5819 5823 5828 5831 5835 5837 5841 5845 5848 5850 5853 5855 5858 5861 5862 5864 5869 5874 5878 5879 5883 5886 5884 5883 5886 5889 5891 5894 5897 5898 5900 5901 5902 5903 5904 5905 5907 5908
5760 5757 5755 5753 5751 5749 5747 5745 5742 5740 5738 5736 5735 5734 5734 5735 5736 5737 5738 5739 5740 5741 5742 5744 5746 5747 5749 5751 5753 5754 5756 5759 5762 5764 5767 5769 5772 5775 5778 5782 5786 5789 5792 5796 5799 5802 5805 5807 5811 5813 5815 5820 5824 5827 5831 5834 5838 5842 5844 5847 5851 5853 5856 5857 5859 5862 5866 5870 5873 5877 5881 5882 5880 5882 5885 5886 5889 5893 5894 5897 5898 5900 5901 5902 5903 5904 5906 5907
5759 5756 5754 5752 5750 5748 5747 5744 5742 5740 5737 5736 5735 5735 5735 5736 5736 5737 5738 5739 5740 5742 5743 5744 5746 5747 5748 5750 5752 5753 5755 5758 5760 5763 5765 5767 5770 5772 5775 5779 5783 5785 5789 5793 5796 5799 5803 5806 5807 5809 5812 5816 5820 5824 5827 5831 5835 5839 5842 5845 5848 5851 5854 5856 5858 5861 5864 5868 5871 5876 5879 5878 5877 5880 5883 5884 5888 5890 5893 5895 5897 5898 5900 5901 5902 5903 5904 5906
5759 5756 5754 5752 5750 5748 5746 5744 5742 5740 5737 5736 5736 5735 5736 5736 5737 5737 5738 5740 5741 5742 5743 5744 5746 5747 5749 5750 5752 5753 5755 5757 5759 5762 5763 5765 5768 5770 5773 5776 5779 5782 5786 5790 5793 5796 5799 5801 5804 5807 5811 5814 5817 5821 5824 5829 5833 5836 5838 5841 5845 5848 5851 5854 5856 5859 5863 5867 5869 5873 5875 5873 5874 5878 5881 5883 5885 5888 5891 5893 5895 5897 5898 5899 5901 5902 5903 5904
5759 5756 5754 5751 5749 5748 5746 5744 5742 5740 5738 5736 5736 5736 5736 5736 5737 5738 5739 5740 5741 5742 5743 5745 5746 5747 5748 5750 5751 5753 5755 5757 5759 5761 5762 5764 5767 5769 5771 5774 5777 5780 5783 5786 5789 5793 5796 5799 5803 5806 5809 5811 5815 5818 5822 5827 5829 5831 5835 5838 5840 5843 5846 5849 5851 5854 5860 5863 5865 5869 5869 5868 5872 5876 5878 5880 5882 5885 5889 5891 5893 5895 5896 5898 5900 5900 5902 5903
5759 5756 5753 5751 5749 5747 5746 5744 5743 5741 5739 5737 5737 5736 5736 5736 5738 5739 5740 5741 5742 5743 5743 5744 5745 5747 5748 5749 5751 5752 5755 5757 5758 5760 5762 5764 5766 5767 5769 5772 5774 5777 5780 5783 5786 5790 5793 5797 5800 5803 5806 5809 5813 5816 5820 5823 5825 5828 5832 5834 5837 5841 5844 5848 5849 5852 5857 5861 5863 5865 5865 5866 5870 5872 5873 5876 5879 5882 5886 5888 5891 5893 5895 5897 5898 5899 5900 5901
5759 5756 5753 5751 5748 5747 5746 5745 5743 5741 5740 5738 5737 5737 5737 5737 5738 5739 5740 5741 5742 5743 5743 5744 5745 5746 5748 5749 5751 5753 5755 5756 5758 5759 5761 5763 5765 5766 5768 5770 5773 5775 5778 5781 5784 5787 5791 5794 5798 5801 5803 5807 5811 5814 5816 5819 5822 5826 5828 5830 5834 5839 5842 5845 5847 5849 5854 5859 5861 5861 5861 5863 5865 5867 5870 5874 5877 5879 5883 5886 5888 5891 5893 5895 5896 5898 5899 5900
5759 5756 5754 5751 5748 5747 5746 5745 5743 5742 5741 5739 5738 5738 5738 5738 5739 5739 5740 5742 5743 5743 5744 5744 5745 5746 5747 5749 5751 5752 5754 5756 5757 5758 5760 5762 5764 5765 5767 5769 5772 5774 5776 5779 5782 5785 5789 5792 5794 5797 5800 5804 5808 5810 5811 5814 5819 5823 5825 5828 5831 5835 5837 5840 5844 5847 5852 5857 5858 5857 5857 5858 5860 5863 5868 5871 5874 5877 5880 5883 5886 5888 5891 5893 5894 5896 5897 5899
5759 5756 5754 5751 5749 5747 5745 5744 5744 5742 5741 5740 5739 5738 5738 5738 5739 5740 5741 5742 5743 5743 5744 5744 5745 5745 5746 5748 5750 5751 5753 5754 5756 5757 5759 5761 5762 5764 5766 5768 5770 5772 5775 5777 5780 5783 5786 5789 5791 5794 5797 5800 5803 5806 5808 5812 5816 5819 5822 5824 5827 5831 5834 5837 5840 5843 5848 5853 5856 5856 5855 5854 5857 5861 5864 5867 5871 5874 5877 5881 5884 5886 5888 5891 5892 5894 5896 5898
5759 5757 5754 5751 5749 5747 5745 5744 5743 5743 5742 5741 5740 5739 5739 5739 5739 5740 5741 5742 5743 5743 5744 5744 5745 5745 5746 5747 5748 5750 5752 5754 5755 5756 5758 5760 5761 5763 5765 5767 5769 5771 5773 5776 5778 5781 5783 5787 5789 5791 5793 5796 5799 5804 5807 5810 5813 5816 5818 5820 5824 5828 5830 5834 5837 5840 5844 5847 5851 5854 5852 5850 5855 5859 5862 5865 5868 5871 5875 5878 5881 5884 5886 5888 5890 5892 5894 5896
5759 5757 5754 5751 5749 5747 5745 5744 5743 5742 5742 5742 5741 5740 5740 5740 5740 5740 5741 5742 5742 5743 5744 5744 5745 5746 5746 5747 5748 5750 5751 5753 5754 5756 5757 5759 5760 5762 5763 5765 5767 5769 5772 5774 5777 5779 5782 5784 5785 5787 5790 5794 5799 5802 5805 5807 5811 5814 5816 5818 5822 5825 5826 5830 5834 5836 5840 5843 5846 5849 5848 5846 5852 5856 5859 5863 5866 5869 5872 5875 5878 5881 5883 5886 5888 5890 5892 5894
5759 5757 5754 5752 5750 5748 5745 5744 5742 5742 5742 5742 5742 5741 5740 5740 5740 5740 5741 5741 5742 5743 5743 5744 5745 5746 5747 5747 5749 5750 5751 5752 5753 5755 5756 5757 5759 5760 5762 5764 5766 5768 5770 5772 5775 5777 5780 5782 5784 5786 5790 5793 5796 5799 5802 5805 5808 5810 5813 5816 5819 5821 5823 5828 5830 5832 5836 5839 5841 5845 5844 5843 5849 5853 5855 5859 5862 5866 5869 5872 5875 5878 5880 5883 5885 5887 5890 5891
5759 5757 5755 5752 5750 5748 5746 5744 5743 5742 5742 5741 5741 5741 5741 5741 5741 5741 5741 5741 5742 5743 5743 5744 5744 5745 5746 5747 5748 5749 5750 5751 5753 5754 5755 5756 5758 5759 5761 5762 5764 5766 5769 5771 5773 5775 5777 5780 5782 5785 5788 5790 5793 5796 5798 5801 5804 5806 5810 5813 5815 5818 5822 5825 5827 5829 5832 5834 5837 5842 5840 5839 5845 5850 5852 5855 5858 5862 5865 5868 5871 5874 5877 5880 5882 5884 5887 5888
5759 5757 5755 5753 5751 5749 5747 5745 5743 5742 5741 5741 5741 5741 5741 5741 5741 5741 5741 5741 5742 5742 5743 5743 5744 5745 5746 5747 5748 5749 5750 5751 5752 5753 5754 5755 5757 5758 5759 5761 5763 5765 5767 5769 5771 5773 5775 5777 5780 5783 5785 5787 5790 5792 5794 5797 5801 5804 5807 5809 5812 5816 5819 5821 5824 5826 5828 5830 5834 5837 5836 5835 5840 5845 5848 5851 5854 5858 5861 5864 5867 5870 5873 5876 5878 5881 5883 5885
5758 5757 5755 5753 5751 5749 5748 5746 5744 5743 5742 5741 5741 5741 5741 5741 5741 5741 5741 5741 5742 5742 5742 5743 5744 5744 5745 5746 5747 5748 5749 5750 5751 5752 5753 5754 5756 5757 5758 5760 5761 5763 5765 5767 5769 5771 5773 5775 5777 5779 5781 5783 5785 5788 5791 5795 5798 5801 5803 5806 5809 5812 5815 5818 5821 5822 5824 5827 5829 5831 5832 5834 5837 5841 5844 5847 5850 5853 5856 5859 5863 5866 5868 5871 5874 5877 5879 5882
5758 5757 5755 5753 5752 5750 5749 5748 5746 5744 5743 5742 5741 5740 5740 5740 5741 5741 5741 5742 5742 5742 5742 5743 5743 5744 5745 5746 5747 5748 5749 5750 5751 5751 5752 5753 5755 5756 5757 5759 5760 5762 5763 5765 5767 5769 5771 5773 5775 5776 5778 5780 5782 5785 5788 5791 5794 5797 5800 5803 5805 5809 5811 5814 5816 5818 5821 5823 5825 5827 5831 5832 5833 5836 5840 5843 5846 5849 5852 5855 5858 5861 5864 5866 5869 5872 5875 5877
5758 5756 5755 5753 5752 5751 5750 5749 5747 5746 5744 5743 5741 5740 5739 5739 5739 5740 5741 5741 5742 5742 5743 5743 5743 5744 5745 5745 5746 5747 5748 5749 5750 5751 5751 5752 5753 5754 5756 5757 5759 5760 5762 5764 5765 5767 5769 5771 5773 5775 5776 5778 5780 5783 5785 5788 5790 5793 5796 5798 5801 5805 5807 5810 5812 5815 5818 5819 5820 5825 5828 5829 5830 5833 5836 5839 5842 5844 5847 5850 5853 5856 5859 5862 5864 5867 5870 5872
5757 5756 5755 5754 5752 5751 5750 5749 5748 5747 5745 5744 5742 5741 5739 5739 5738 5739 5739 5740 5741 5742 5743 5743 5744 5744 5745 5745 5746 5747 5747 5748 5749 5750 5750 5751 5752 5753 5754 5756 5757 5759 5760 5762 5763 5765 5767 5769 5771 5773 5774 5776 5778 5780 5782 5785 5787 5790 5792 5795 5798 5801 5803 5806 5809 5811 5813 5815 5818 5822 5824 5825 5827 5830 5832 5835 5838 5840 5843 5846 5849 5852 5855 5858 5860 5862 5865 5867
5757 5756 5754 5753 5752 5751 5750 5749 5748 5747 5746 5745 5744 5742 5741 5739 5738 5738 5738 5739 5740 5741 5742 5743 5743 5744 5744 5745 5746 5746 5747 5748 5749 5749 5750 5751 5751 5752 5753 5755 5756 5757 5758 5760 5762 5763 5765 5767 5769 5770 5772 5774 5776 5778 5780 5782 5784 5787 5789 5792 5795 5797 5800 5802 5804 5807 5809 5811 5814 5817 5820 5821 5823 5826 5828 5831 5833 5835 5838 5841 5844 5847 5850 5853 5856 5858 5860 5863
5756 5755 5754 5753 5752 5751 5750 5749 5749 5748 5747 5746 5745 5743 5742 5741 5739 5739 5738 5739 5739 5740 5740 5741 5742 5742 5743 5744 5744 5745 5746 5747 5747 5748 5749 5750 5751 5752 5753 5754 5755 5756 5757 5759 5760 5761 5763 5765 5766 5768 5770 5771 5773 5775 5777 5779 5781 5783 5785 5788 5791 5793 5795 5797 5800 5803 5805 5807 5810 5813 5814 5815 5819 5822 5824 5826 5828 5831 5833 5836 5839 5842 5845 5848 5851 5853 5856 5858
5755 5754 5753 5752 5752 5751 5750 5749 5749 5748 5747 5746 5745 5744 5743 5742 5741 5740 5739 5739 5739 5739 5739 5740 5740 5741 5741 5742 5742 5743 5744 5745 5745 5746 5747 5748 5749 5750 5751 5752 5753 5755 5756 5757 5758 5760 5761 5763 5764 5766 5767 5768 5771 5772 5774 5776 5778 5779 5781 5784 5787 5789 5791 5794 5797 5799 5801 5803 5805 5806 5807 5811 5815 5817 5819 5821 5823 5825 5828 5831 5833 5836 5840 5843 5846 5848 5851 5853